Location: Arboucave
(43.6130°N, 0.4343°W)
Time: 00:33:18
(UTC+00:00)

AQUARIUS - Pass Details

Date: 17 November 2025
Orbit: 634 x 636 km, 98.0° (Epoch: 11 December)

Event Time Altitude Azimuth Distance (km) Brightness Sun altitude
Rises 17:19:07 0° 150° (SSE) 2,922 7.4 -8.3°
Reaches altitude 10° 17:21:21 10° 144° (SE) 2,017 6.5 -8.7°
Maximum altitude 17:25:33 46° 72° (ENE) 855 4.4 -9.4°
Drops below altitude 10° 17:29:47 10° 359° (N) 2,031 6.5 -10.1°
Sets 17:32:03 0° 353° (N) 2,943 7.4 -10.5°
